Regional Weather Roundup
Issued by NWS Tiyan, Guam

Home | Current Version | Previous Version | Text Only | Print | Product List | Glossary On
Versions: 1 2 3 4 5 6 7 8 9 10 11 12 13 14 15 16 17 18 19 20 21 22 23 24 25 26 27 28 29 30 31 32 33 34 35 36 37 38 39 40 41 42 43 44 45
000
ASGM40 PGUM 272112
RWRGUM
WEATHER ROUNDUP FOR THE MARIANAS
NATIONAL WEATHER SERVICE TIYAN GU
700 AM CHST SUN DEC 28 2014

GUZ001>004-272200-
MARIANA ISLANDS-

CITY           SKY/WX    TMP DP  RH WIND       PRES   REMARKS
GUAM AIRPORT   LGT RAIN  77  75  94 SE5       29.87R FOG
ANDERSEN AFB   CLOUDY    77  75  94 E12       29.87R
ROTA AIRPORT   MOCLDY    77  75  94 E15       29.87R
TINIAN AP      PTCLDY    79  73  83 E14       29.85R
SAIPAN AP      CLEAR     79  73  83 E22G28    29.87R

$$



USA.gov is the U.S. government's official web portal to all federal, state and local government web resources and services.